Location: Lake Runnemede Observatory
(43.4843°N, 72.3851°W)
Time: 09:57:29
(UTC-04:00)

Amateur Radio Satellites - All Passes

Search period start: 23 July 2014 09:27
Search period end: 24 July 2014 09:27
Location: Lake Runnemede Observatory, 43.4843°N, 72.3851°W

Satellite Date Start Highest point End Downlink Frequencies (MHz)
Time Altitude Azimuth
Oscar 10/S400 23 Jul 09:30:57 09:40:46 10° 265° (W) 09:51:21 145.825 - 145.975 CW/USB, Beacon 145.810 USB
KITSAT 1 23 Jul 09:37:58 09:45:08 33° 320° (NW) 09:52:20 435.175 FM
PCSat 23 Jul 09:43:00 09:46:51 19° 40° (NE) 09:50:41 145.825 MHz
MaSat-1 23 Jul 10:00:08 10:01:51 12° 262° (W) 10:03:33 437.345 MHz
Oscar 11 23 Jul 10:10:54 10:14:56 37° 98° (E) 10:18:56 145.825 FM, Beacon 2401.500 USB
Saudisat 1A 23 Jul 10:11:58 10:16:13 45° 310° (NW) 10:20:29 436.775 MHz
FUNcube-1 23 Jul 10:15:35 10:17:58 15° 91° (E) 10:20:20 145.950 - 145.970 MHz USB
HO-68 23 Jul 10:47:47 10:54:48 60° 292° (WNW) 11:01:46 435.675 MHz FM
Sapphire 23 Jul 10:51:28 10:56:45 50° 54° (NE) 11:02:00 437.095 MHz 1200 baud AX-25 AFSK
UKube-1 23 Jul 10:54:48 10:58:52 39° 290° (WNW) 11:02:54 145.840 MHz, 145.915 MHz
PCSat 23 Jul 11:25:32 11:30:59 86° 241° (WSW) 11:36:24 145.825 MHz
KITSAT 1 23 Jul 11:39:13 11:43:33 15° 348° (NNW) 11:47:52 435.175 FM
Oscar 11 23 Jul 11:47:36 11:50:54 22° 294° (WNW) 11:54:12 145.825 FM, Beacon 2401.500 USB
FUNcube-1 23 Jul 11:50:39 11:54:39 48° 288° (WNW) 11:58:39 145.950 - 145.970 MHz USB
JAS-1B 23 Jul 12:19:42 12:24:49 17° 44° (NE) 12:30:08 435.800 - 435.900 CW/SSB
Oscar 19 23 Jul 12:20:28 12:24:09 20° 62° (ENE) 12:27:51 437.125 CW, 437.150 USB
RS-15 23 Jul 12:21:43 12:25:13 12° 94° (E) 12:28:41 29.354 - 29.394 USB, Beacon 29.352 USB
Sapphire 23 Jul 12:35:29 12:39:52 26° 252° (WSW) 12:44:15 437.095 MHz 1200 baud AX-25 AFSK
HO-68 23 Jul 12:38:06 12:41:04 13° 313° (NW) 12:44:01 435.675 MHz FM
Oscar 16 23 Jul 12:46:34 12:51:11 35° 67° (ENE) 12:55:49 437.025 USB, Beacon 2401.1428
ITAMSAT 1 23 Jul 12:55:21 12:59:11 21° 62° (ENE) 13:03:00 435.822 SSB
Gurwin Techsat 1B 23 Jul 13:03:22 13:04:17 10° 55° (NE) 13:05:13 435.225 FM
PCSat 23 Jul 13:11:37 13:13:32 12° 258° (WSW) 13:15:27 145.825 MHz
AO-27 23 Jul 13:12:05 13:16:33 29° 65° (ENE) 13:21:01 436.795 MHz FM
Uribyol 2 23 Jul 13:15:30 13:20:05 32° 66° (ENE) 13:24:40 436.500 FM
AO-Echo 23 Jul 13:24:38 13:29:27 37° 68° (ENE) 13:34:19 ?
SO-50 23 Jul 13:34:29 13:38:15 27° 114° (ESE) 13:42:05 436.795 FM
KITSAT 1 23 Jul 13:37:53 13:42:56 17° 20° (NNE) 13:47:58 435.175 FM
Oscar 19 23 Jul 13:58:05 14:03:05 55° 260° (W) 14:08:08 437.125 CW, 437.150 USB
JAS-1B 23 Jul 14:04:45 14:13:06 58° 66° (ENE) 14:22:33 435.800 - 435.900 CW/SSB
AO-7 23 Jul 14:14:55 14:20:42 21° 49° (NE) 14:26:28 29.400 - 29.500 MHz
TMSAT-1 23 Jul 14:18:19 14:23:04 34° 67° (ENE) 14:27:49 436.925 FM
RS-15 23 Jul 14:24:15 14:35:07 62° 115° (ESE) 14:45:46 29.354 - 29.394 USB, Beacon 29.352 USB
Oscar 16 23 Jul 14:26:07 14:30:34 30° 265° (W) 14:35:02 437.025 USB, Beacon 2401.1428
ITAMSAT 1 23 Jul 14:33:09 14:38:16 56° 259° (W) 14:43:25 435.822 SSB
Gurwin Techsat 1B 23 Jul 14:38:00 14:43:16 69° 73° (ENE) 14:48:34 435.225 FM
AO-27 23 Jul 14:51:05 14:55:55 38° 262° (W) 15:00:47 436.795 MHz FM
Uribyol 2 23 Jul 14:54:48 14:59:30 34° 263° (W) 15:04:13 436.500 FM
AO-Echo 23 Jul 15:03:38 15:08:14 30° 265° (W) 15:12:55 ?
SO-50 23 Jul 15:14:29 15:18:40 38° 313° (NW) 15:22:56 436.795 FM
Uosat F 23 Jul 15:16:51 15:21:09 29° 65° (ENE) 15:25:27 435.120 FM
KITSAT 1 23 Jul 15:33:04 15:40:46 45° 46° (NE) 15:48:24 435.175 FM
OPAL 23 Jul 15:46:07 15:49:07 16° 93° (E) 15:52:06 ?
JAS-1B 23 Jul 15:56:08 16:03:54 39° 268° (W) 16:12:43 435.800 - 435.900 CW/SSB
TMSAT-1 23 Jul 15:58:15 16:02:58 32° 264° (W) 16:07:43 436.925 FM
AO-7 23 Jul 16:03:56 16:12:17 82° 69° (ENE) 16:20:41 29.400 - 29.500 MHz
UOSAT-12 23 Jul 16:08:42 16:13:16 68° 121° (ESE) 16:17:56 437.025 FM, 437.400 FM
Gurwin Techsat 1B 23 Jul 16:20:35 16:23:45 16° 270° (W) 16:26:56 435.225 FM
RS-15 23 Jul 16:37:26 16:47:55 46° 320° (NW) 16:58:21 29.354 - 29.394 USB, Beacon 29.352 USB
Hamsat 23 Jul 16:53:14 16:55:52 16° 64° (ENE) 16:58:30 145.90 MHz
Uosat F 23 Jul 16:55:10 16:59:48 36° 262° (W) 17:04:28 435.120 FM
Saudisat 1A 23 Jul 16:58:19 17:02:09 28° 44° (NE) 17:05:58 436.775 MHz
OPAL 23 Jul 17:23:26 17:28:26 67° 289° (WNW) 17:33:28 ?
JAS-2 23 Jul 17:26:00 17:33:19 45° 67° (ENE) 17:40:19 435.800 - 435.900 CW/SSB, 435.910 FM
KITSAT 1 23 Jul 17:28:35 17:36:16 49° 248° (WSW) 17:43:54 435.175 FM
UOSAT-12 23 Jul 17:50:22 17:53:53 21° 321° (NW) 17:57:27 437.025 FM, 437.400 FM
AO-7 23 Jul 17:59:46 18:05:56 22° 269° (W) 18:12:09 29.400 - 29.500 MHz
SO-67 23 Jul 18:18:07 18:20:31 18° 68° (ENE) 18:22:54 435.3500 MHz FM
Hamsat 23 Jul 18:27:27 18:31:28 47° 261° (W) 18:35:32 145.90 MHz
Saudisat 1A 23 Jul 18:37:44 18:41:50 38° 243° (WSW) 18:45:54 436.775 MHz
RS-15 23 Jul 18:55:31 19:03:58 24° 353° (N) 19:12:29 29.354 - 29.394 USB, Beacon 29.352 USB
Oscar 10/S400 23 Jul 18:59:23 19:12:43 21° 138° (SE) 19:30:20 145.825 - 145.975 CW/USB, Beacon 145.810 USB
JAS-2 23 Jul 19:10:52 19:18:15 44° 263° (W) 19:25:25 435.800 - 435.900 CW/SSB, 435.910 FM
HO-68 23 Jul 19:31:19 19:36:55 26° 57° (ENE) 19:42:31 435.675 MHz FM
STRAND 1 23 Jul 19:36:40 19:41:48 69° 102° (ESE) 19:46:52 ?
SO-67 23 Jul 19:50:22 19:53:24 28° 264° (W) 19:56:27 435.3500 MHz FM
UKube-1 23 Jul 20:16:07 20:19:29 22° 65° (ENE) 20:22:51 145.840 MHz, 145.915 MHz
Oscar 11 23 Jul 21:07:10 21:11:03 34° 69° (ENE) 21:14:57 145.825 FM, Beacon 2401.500 USB
RS-15 23 Jul 21:11:18 21:20:55 33° 28° (NNE) 21:30:41 29.354 - 29.394 USB, Beacon 29.352 USB
FUNcube-1 23 Jul 21:13:35 21:16:14 16° 64° (ENE) 21:18:51 145.950 - 145.970 MHz USB
HO-68 23 Jul 21:16:51 21:24:00 71° 256° (WSW) 21:31:11 435.675 MHz FM
STRAND 1 23 Jul 21:17:14 21:20:25 17° 300° (WNW) 21:23:35 ?
UKube-1 23 Jul 21:51:24 21:55:28 38° 262° (W) 21:59:34 145.840 MHz, 145.915 MHz
SO-50 23 Jul 22:04:14 22:08:40 38° 48° (NE) 22:13:09 436.795 FM
MaSat-1 23 Jul 22:13:17 22:16:47 33° 107° (ESE) 22:20:50 437.345 MHz
Oscar 11 23 Jul 22:43:55 22:47:19 22° 266° (W) 22:50:43 145.825 FM, Beacon 2401.500 USB
FUNcube-1 23 Jul 22:47:57 22:52:15 53° 260° (W) 22:56:28 145.950 - 145.970 MHz USB
UOSAT-12 23 Jul 22:58:13 23:01:07 16° 35° (NE) 23:04:01 437.025 FM, 437.400 FM
HO-68 23 Jul 23:10:29 23:12:55 12° 274° (W) 23:15:21 435.675 MHz FM
RS-15 23 Jul 23:23:59 23:35:04 84° 56° (NE) 23:46:32 29.354 - 29.394 USB, Beacon 29.352 USB
SO-50 23 Jul 23:45:00 23:49:08 30° 245° (WSW) 23:53:19 436.795 FM
Lituanica SAT-1 23 Jul 23:48:04 23:49:29 16° 137° (SE) 23:50:56 437.275 MHz beacon
MaSat-1 23 Jul 23:50:39 23:54:12 27° 310° (NW) 23:58:13 437.345 MHz
UOSAT-12 24 Jul 00:37:18 00:42:03 80° 55° (NE) 00:46:44 437.025 FM, 437.400 FM
Oscar 16 24 Jul 00:59:37 01:00:47 11° 87° (E) 01:01:56 437.025 USB, Beacon 2401.1428
Lituanica SAT-1 24 Jul 01:20:10 01:22:09 32° 334° (NNW) 01:24:10 437.275 MHz beacon
ISS 24 Jul 01:22:40 01:25:38 30° 138° (SE) 01:28:37 145.800 FM
AO-Echo 24 Jul 01:34:32 01:34:46 10° 86° (E) 01:34:59 ?
Sapphire 24 Jul 01:34:49 01:39:39 35° 111° (ESE) 01:44:31 437.095 MHz 1200 baud AX-25 AFSK
RS-15 24 Jul 01:37:34 01:46:10 27° 257° (WSW) 01:55:03 29.354 - 29.394 USB, Beacon 29.352 USB
JAS-1B 24 Jul 01:51:37 01:57:36 18° 82° (E) 02:03:08 435.800 - 435.900 CW/SSB
PCSat 24 Jul 02:08:09 02:13:31 71° 117° (ESE) 02:18:56 145.825 MHz
Oscar 19 24 Jul 02:08:23 02:13:22 48° 99° (E) 02:18:21 437.125 CW, 437.150 USB
UOSAT-12 24 Jul 02:19:24 02:21:33 13° 252° (WSW) 02:23:41 437.025 FM, 437.400 FM
TMSAT-1 24 Jul 02:34:59 02:36:49 12° 87° (E) 02:38:38 436.925 FM
Oscar 16 24 Jul 02:35:40 02:40:51 88° 104° (ESE) 02:46:01 437.025 USB, Beacon 2401.1428
ITAMSAT 1 24 Jul 02:44:51 02:49:52 48° 100° (E) 02:54:51 435.822 SSB
Gurwin Techsat 1B 24 Jul 02:53:39 02:58:00 25° 94° (E) 03:02:19 435.225 FM
Lituanica SAT-1 24 Jul 02:54:44 02:55:28 11° 353° (N) 02:56:11 437.275 MHz beacon
ISS 24 Jul 02:59:04 03:02:17 43° 335° (NNW) 03:05:32 145.800 FM
OPAL 24 Jul 03:01:41 03:06:03 33° 64° (ENE) 03:10:27 ?
AO-27 24 Jul 03:02:27 03:07:40 71° 103° (ESE) 03:12:49 436.795 MHz FM
Uribyol 2 24 Jul 03:05:41 03:10:53 79° 104° (ESE) 03:16:02 436.500 FM
AO-Echo 24 Jul 03:09:08 03:14:21 86° 104° (ESE) 03:19:21 ?
Sapphire 24 Jul 03:18:00 03:23:01 38° 310° (NW) 03:28:04 437.095 MHz 1200 baud AX-25 AFSK
JAS-1B 24 Jul 03:39:56 03:49:44 79° 103° (ESE) 03:58:15 435.800 - 435.900 CW/SSB
Oscar 19 24 Jul 03:48:24 03:52:25 24° 297° (WNW) 03:56:26 437.125 CW, 437.150 USB
PCSat 24 Jul 03:53:19 03:57:29 22° 317° (NW) 04:01:41 145.825 MHz
AO-7 24 Jul 04:05:15 04:11:46 25° 93° (E) 04:18:13 29.400 - 29.500 MHz
TMSAT-1 24 Jul 04:12:07 04:17:27 89° 284° (WNW) 04:22:44 436.925 FM
Oscar 16 24 Jul 04:17:01 04:19:28 14° 302° (WNW) 04:21:55 437.025 USB, Beacon 2401.1428
ITAMSAT 1 24 Jul 04:25:01 04:29:03 24° 297° (WNW) 04:33:05 435.822 SSB
Lituanica SAT-1 24 Jul 04:27:49 04:28:58 13° 12° (NNE) 04:30:06 437.275 MHz beacon
Gurwin Techsat 1B 24 Jul 04:33:07 04:38:09 44° 291° (WNW) 04:43:08 435.225 FM
ISS 24 Jul 04:37:02 04:39:39 20° 355° (N) 04:42:15 145.800 FM
OPAL 24 Jul 04:40:32 04:44:55 31° 261° (W) 04:49:19 ?
AO-27 24 Jul 04:43:22 04:46:35 17° 301° (WNW) 04:49:48 436.795 MHz FM
Uribyol 2 24 Jul 04:46:50 04:49:42 15° 301° (WNW) 04:52:33 436.500 FM
AO-Echo 24 Jul 04:49:48 04:52:20 14° 302° (WNW) 04:54:51 ?
Uosat F 24 Jul 05:01:11 05:06:12 63° 102° (ESE) 05:11:09 435.120 FM
STRAND 1 24 Jul 05:17:16 05:20:20 16° 59° (ENE) 05:23:23 ?
JAS-1B 24 Jul 05:31:13 05:39:10 30° 305° (NW) 05:46:29 435.800 - 435.900 CW/SSB
TMSAT-1 24 Jul 05:54:06 05:56:35 14° 303° (WNW) 05:59:03 436.925 FM
AO-7 24 Jul 05:56:58 06:05:18 76° 292° (WNW) 06:13:34 29.400 - 29.500 MHz
Lituanica SAT-1 24 Jul 05:59:57 06:02:06 62° 31° (NNE) 06:04:14 437.275 MHz beacon
KITSAT 1 24 Jul 06:04:45 06:10:38 23° 103° (ESE) 06:16:31 435.175 FM
Hamsat 24 Jul 06:12:08 06:15:48 27° 95° (E) 06:19:27 145.90 MHz
ISS 24 Jul 06:14:14 06:17:09 26° 16° (NNE) 06:20:04 145.800 FM
JAS-2 24 Jul 06:20:41 06:25:58 28° 92° (E) 06:30:45 435.800 - 435.900 CW/SSB, 435.910 FM
MaSat-1 24 Jul 06:30:25 06:34:10 19° 46° (NE) 06:37:54 437.345 MHz
Uosat F 24 Jul 06:41:10 06:44:29 18° 299° (WNW) 06:47:47 435.120 FM
STRAND 1 24 Jul 06:53:46 06:58:54 74° 257° (WSW) 07:04:05 ?
SO-67 24 Jul 07:13:29 07:15:53 17° 93° (E) 07:18:17 435.3500 MHz FM
Hamsat 24 Jul 07:48:03 07:51:43 28° 291° (WNW) 07:55:24 145.90 MHz
ISS 24 Jul 07:50:48 07:54:11 78° 214° (SW) 07:57:32 145.800 FM
AO-7 24 Jul 07:51:20 07:56:45 20° 313° (NW) 08:02:10 29.400 - 29.500 MHz
KITSAT 1 24 Jul 07:56:59 08:05:06 82° 303° (WNW) 08:13:16 435.175 FM
JAS-2 24 Jul 08:05:21 08:11:19 44° 293° (WNW) 08:16:38 435.800 - 435.900 CW/SSB, 435.910 FM
MaSat-1 24 Jul 08:06:51 08:12:13 81° 245° (WSW) 08:17:22 437.345 MHz
HO-68 24 Jul 08:44:25 08:49:34 21° 91° (E) 08:54:41 435.675 MHz FM
Saudisat 1A 24 Jul 08:45:00 08:49:08 40° 117° (ESE) 08:53:17 436.775 MHz
SO-67 24 Jul 08:45:59 08:49:00 28° 289° (WNW) 08:52:00 435.3500 MHz FM
PCSat 24 Jul 09:12:49 09:16:01 16° 37° (NE) 09:19:13 145.825 MHz
